Regional Weather Roundup
Issued by NWS Charleston, SC

Current Version | Previous Version | Graphics & Text | Print | Product List | Glossary On
Versions: 1 2 3 4 5 6 7 8 9 10 11 12 13 14 15 16 17 18 19 20 21 22 23 24 25 26 27 28 29 30 31 32 33 34 35 36 37 38 39 40 41 42 43 44 45 46 47 48 49 50
000 ASUS42 KCHS 250925 RWRCHS REGIONAL WEATHER ROUNDUP NATIONAL WEATHER SERVICE CHARLESTON SC 400 AM EST SUN JAN 25 2015 NOTE: "FAIR" INDICATES FEW OR NO CLOUDS BELOW 12,000 FEET WITH NO SIGNIFICANT WEATHER AND/OR OBSTRUCTIONS TO VISIBILITY. NOT ALL STATIONS ARE QUALITY CONTROLLED BY THE NATIONAL WEATHER SERVICE. USE DATA WITH CAUTION...ESPECIALLY DEWPOINT OBSERVATIONS. SCZ027-030-031-034>040-042>050-251000- ...SOUTHEAST SOUTH CAROLINA... CITY SKY/WX TMP DP RH WIND PRES REMARKS N CHARLESTON CLEAR 38 31 76 W5 29.95S WCI 34 WATERFRONT PRK N/A 43 N/A N/A W7 N/A MOUNT PLEASANT LGT RAIN N/A N/A N/A CALM 29.94S PINOPOLIS NOT AVBL MONCKS CORNER FAIR 37 32 81 CALM 29.95R SUMMERVILLE FAIR 34 34 100 CALM 29.96S BEAUFORT MCAS CLEAR 41 30 65 W7 29.97S BEAUFORT ARPT FAIR 43 32 65 W9 29.96S HILTON HEAD IS CLEAR 43 32 65 W7 29.99R WALTERBORO SUNNY 37 30 75 NW3 29.96F ALLENDALE FAIR 39 30 70 CALM 29.96S ...SOUTHERN MIDLANDS AND PEE DEE... CITY SKY/WX TMP DP RH WIND PRES REMARKS GEORGETOWN NOT AVBL KINGSTREE NOT AVBL ORANGEBURG FAIR 38 28 67 NW3 29.94R BARNWELL N/A 36 32 87 CALM 29.96S AIKEN FAIR 36 30 80 W7 29.97R WCI 30 MANNING NOT AVBL COLUMBIA CLEAR 34 28 79 CALM 29.93R SUMTER CLEAR 37 28 70 W8 29.91R WCI 30 FLORENCE CLEAR 35 29 78 W6 29.91R WCI 30 MYRTLE BEACH CLEAR 41 30 65 W9 29.94R N MYRTLE BEACH CLEAR 40 32 73 NW7 29.90S WCI 35 $$ GAZ063-065-086>088-099>101-113>116-118-119-134>141-150-251000- ...SOUTHEAST GEORGIA... CITY SKY/WX TMP DP RH WIND PRES REMARKS SAVANNAH ARPT CLEAR 37 31 78 W7 29.99S WCI 32 HUNTER AAF CLEAR 37 31 81 W6 29.97S WCI 32 FORT STEWART CLEAR 37 32 80 SW6 29.99S WCI 33 STATESBORO CLEAR 38 32 79 W3 29.98S SYLVANIA SUNNY 37 32 83 CALM 29.98S CLAXTON FAIR 34 34 100 CALM 30.00S ...CSRA...CENTRAL AND FAR SOUTHEAST GEORGIA... CITY SKY/WX TMP DP RH WIND PRES REMARKS THOMSON CLEAR 38 33 80 CALM 30.00S AUGUSTA-BUSH CLEAR 41 28 60 CALM 29.96R AUGUSTA-DANIEL CLEAR 42 29 59 W6 29.96R SWAINSBORO FAIR 37 27 65 W5 29.98S WCI 34 VIDALIA CLEAR 36 32 87 SW3 30.00S EASTMAN FAIR 33 33 100 CALM 30.04S HAZLEHURST FAIR 37 36 93 SW3 30.01S ALMA CLEAR 36 33 89 SW3 30.03R WAYCROSS CLEAR 38 36 91 W3 30.04S JESUP FAIR 37 36 93 W6 30.03R WCI 33 BAXLEY FAIR 37 36 93 CALM 30.02R BRUNSWICK CLEAR 41 34 75 W7 30.03S SAINT SIMONS CLEAR 42 34 73 W9 30.01F $$ SCZ027-028-034-036>038-045-046-048>050-GAZ119-141-251000- ...LAKE AND SUPPLEMENTAL COASTAL OBSERVATIONS... STATION/POSITION TIME TEMP WIND PRES WAVE SWELL AIR SEA DIR/SP/G HT/PER HT/PER/DIR (UTC) (F) (DEG/KT/KT) (MB) (FT/S) (FT/S/D) UPR LAKE MARION NOT AVBL WINYAH BAY 0900 41 270/ 5 1012.0S LAKE MURRAY 0900 39 310/ 2/ 5 1012.9S ACE BASIN NERRS NOT AVBL FORT PULASKI 0900 44 54 280/ 13/ 16 1015.4F SAPELO ISLAND 0900 43 270/ 7 1016.0S $$ ANZ835-935-AMZ111-154-330-350-352-354-370-450-454-472-251000- ...C-MAN AND BUOY OBSERVATIONS... STATION/POSITION TIME TEMP WIND PRES WAVE SWELL AIR SEA DIR/SP/G HT/PER HT/PER/DIR (UTC) (F) (DEG/KT/KT) (MB) (FT/S) (FT/S/D) BUOY 41004 0900 52 69 310/ 21/ 27 1012.8R 6/ 7 2/10 BUOY 41008 0900 49 55 300/ 17/ 21 1015.6R 3/ 3 FOLLY BEACH CMAN 0900 42 290/ 7/ 10 1014.2F CAPERS NEARSHORE 0800 47 290/ 16/ 19 N/A FRIPP NEARSHORE 0800 47 310/ 16/ 19 N/A STATION/POSITION TIME TEMP WIND PRES WAVE SWELL AIR SEA DIR/SP/G HT/PER HT/PER/DIR (UTC) (F) (DEG/KT/KT) (MB) (FT/S) (FT/S/D) 5E ST. MARYS GA 0900 58 N/A 2/ 3 FRYING PAN BUOY 0900 52 66 310/ 17/ 21 1012.4R 7/ 9 5/180/ 9 BUOY 41025 0900 49 71 290/ 23/ 29 1009.7R 8/10 5/150/10 CAPE LOOKOUT NC 0900 44 310/ 12/ 15 1011.1F BUOY 41002 0804 63 72 300/ 17/ 21 1011.9 11/10 8/220/10 BUOY 41010 0900 64 77 310/ 14/ 17 1014.6S 8/ 9 ST AUGUSTINE FL 0900 43 300/ 6/ 7 1017.0R $$

USA.gov is the U.S. government's official web portal to all federal, state and local government web resources and services.